Probability
0 0 0 0 0 0 0 0 0 0 0 3 3 10 6 16 19 19 13 19 32 48 81 97 97 100 100 100 100 100 100 100 97 97 97 90 90 90 90 90 90 84 74 65 61 61 58 65 61
0 0 0 0 0 0 0 0 0 3 6 6 10 10 10 19 39 29 16 26 35 58 77 90 100 100 100 100 100 97 97 97 94 94 90 87 87 87 87 87 84 77 77 71 65 58 58 61 65
0 0 0 0 0 0 0 0 0 3 6 10 10 13 10 13 39 32 39 35 42 58 77 87 100 100 100 100 97 97 90 90 94 94 90 87 87 87 84 84 77 74 74 77 68 61 61 65 61
0 0 0 0 0 0 0 0 0 6 6 10 23 13 13 16 29 39 45 39 42 58 71 90 100 100 97 97 97 90 90 90 87 87 87 87 84 81 81 81 81 81 77 77 65 61 65 71 71
0 0 0 0 0 0 0 0 3 6 10 10 10 6 10 16 29 42 45 48 39 55 74 87 100 97 97 94 94 94 94 94 90 90 90 87 87 84 84 84 84 81 81 68 65 68 71 71 71
0 0 0 0 0 0 0 3 0 6 3 10 6 6 10 26 32 35 39 42 42 58 74 87 97 97 94 94 94 94 94 90 90 90 87 87 87 87 84 84 87 87 87 77 74 77 77 74 77
0 0 0 0 0 0 3 3 0 13 6 10 10 10 16 29 29 39 48 42 39 55 71 77 87 90 97 94 94 94 90 90 90 90 90 84 84 84 84 84 84 81 81 81 74 81 77 77 77
0 0 0 0 0 0 3 3 3 10 6 3 13 19 23 26 32 39 48 48 48 52 61 77 81 87 84 87 90 90 87 87 87 87 87 87 87 84 84 84 81 81 77 77 77 74 77 81 81
0 0 0 0 0 0 0 0 10 13 13 19 19 23 26 32 32 39 52 48 48 48 48 65 68 71 71 74 81 84 87 87 87 87 87 87 81 74 77 81 81 81 81 81 77 77 77 77 81
0 0 0 0 0 0 0 0 6 16 16 23 26 32 29 35 35 42 52 52 35 35 35 32 58 58 65 68 74 81 81 81 74 74 71 71 65 58 58 58 71 71 74 74 74 74 74 74 68
0 0 0 0 0 3 3 3 3 13 16 13 19 26 29 29 29 42 48 48 39 32 32 26 32 45 48 48 61 58 61 61 58 61 61 52 48 48 45 42 52 61 61 58 68 68 68 65 65
0 0 0 0 0 3 3 6 10 10 16 16 26 39 35 29 26 32 35 39 42 39 35 35 35 32 42 45 55 48 52 58 55 52 52 48 42 39 35 39 39 45 55 52 48 48 52 52 45
0 0 0 0 0 3 3 6 13 10 10 19 29 32 35 32 32 19 23 32 42 39 39 32 35 32 32 39 42 45 52 52 45 48 45 45 39 29 29 29 32 45 42 35 29 32 32 35 29
0 0 0 0 0 3 3 6 6 13 19 29 32 29 35 32 26 19 23 23 26 35 39 39 45 39 35 42 35 32 26 42 39 42 39 39 29 32 29 29 29 32 32 26 26 19 13 16 13
0 0 0 0 0 0 3 3 6 13 16 26 29 26 29 32 32 29 26 23 26 32 29 35 32 39 32 32 29 23 19 19 19 19 23 29 26 23 23 23 23 26 19 19 16 10 10 3 0
0 0 0 0 0 0 0 3 3 13 19 19 19 26 26 26 32 29 23 19 26 26 23 29 39 35 35 32 29 26 26 23 19 19 19 29 26 23 23 19 16 16 13 16 13 6 3 3 3
0 0 0 0 0 0 0 3 3 6 19 19 19 23 26 26 23 29 29 26 16 23 26 23 26 19 13 16 16 19 19 26 26 26 29 26 29 32 29 23 19 16 13 13 13 3 3 3 3
0 0 0 0 0 0 0 3 3 6 16 16 23 26 26 19 19 32 29 26 23 23 19 19 19 19 19 16 16 16 10 13 19 19 19 29 26 26 26 23 19 16 16 6 6 6 0 3 0
0 0 0 0 0 0 0 6 6 10 13 16 23 26 19 16 16 19 23 23 19 16 13 10 13 10 16 16 19 16 10 16 13 16 23 19 23 19 23 26 16 16 13 3 3 3 3 0 0
0 0 0 0 0 0 3 3 10 10 13 13 13 13 19 13 13 13 10 13 19 16 13 6 6 10 10 10 10 10 10 13 16 19 23 23 16 26 26 13 16 10 10 6 3 3 3 3 3
0 0 0 0 0 0 0 3 3 6 6 10 16 13 16 16 13 10 10 10 16 10 6 10 6 10 10 13 10 10 10 13 13 16 19 23 23 26 23 16 16 16 13 10 10 3 3 3 3
0 0 0 0 0 0 0 0 0 3 6 10 10 10 13 16 16 6 10 6 13 10 6 6 6 6 6 6 10 10 10 13 10 10 13 16 16 19 19 13 13 13 13 13 6 6 3 0 3
0 0 0 0 0 0 0 0 0 0 0 3 3 6 10 10 16 6 6 6 6 6 6 6 0 3 3 6 6 6 6 6 10 6 10 6 10 10 10 3 3 6 10 10 10 6 6 3 3
0 0 0 0 0 0 0 0 0 0 0 0 0 3 3 3 6 10 0 3 3 6 3 3 3 0 3 3 6 6 6 3 3 3 6 6 6 6 3 3 3 0 0 3 3 3 6 6 3
0 0 0 0 0 0 0 0 0 0 0 0 0 3 3 3 3 3 3 3 3 3 3 3 3 3 0 0 0 0 0 0 3 3 6 3 3 3 0 0 0 0 0 0 3 3 3 3 3
0 0 0 0 0 0 0 0 3 0 0 0 0 0 3 3 0 0 3 6 3 3 3 3 3 3 0 0 0 0 0 0 3 3 3 3 3 0 0 0 0 0 0 0 0 0 3 3 3
0 0 0 0 0 0 0 3 0 0 0 0 0 0 3 3 0 0 3 6 3 3 3 3 3 3 0 0 0 0 0 0 0 0 0 3 0 0 0 0 0 0 0 0 0 0 3 3 3
0 0 0 0 0 0 0 0 0 0 0 0 0 0 3 3 3 3 3 3 3 3 3 3 3 3 3 0 0 0 0 0 0 0 0 0 0 0 3 0 0 0 0 0 0 0 0 3 3
0 0 0 0 0 0 0 0 0 0 0 0 3 3 3 3 3 3 3 6 3 3 3 3 3 3 0 0 0 0 0 0 0 0 0 0 3 3 0 0 0 0 0 0 0 0 0 0 0
0 0 0 0 0 0 0 0 0 0 0 0 0 3 3 3 3 0 0 6 3 3 3 3 3 3 0 0 0 0 0 0 0 0 0 0 3 0 0 0 0 0 0 0 0 0 0 0 0
Height
5910 5911 5912 5913 5914 5914 5913 5912 5912 5912 5911 5911 5910 5909 5908 5908 5908 5909 5905 5902 5900 5898 5897 5895 5894 5893 5891 5890 5889 5888 5886 5885 5884 5883 5882 5880 5879 5878 5877 5876 5874 5873 5872 5871 5870 5869 5868 5867 5867
5910 5911 5913 5913 5913 5913 5912 5912 5911 5911 5910 5910 5909 5908 5907 5907 5906 5905 5903 5901 5899 5897 5896 5894 5893 5891 5890 5889 5887 5886 5884 5883 5882 5881 5880 5878 5877 5876 5875 5874 5872 5871 5870 5869 5868 5867 5866 5865 5864
5909 5911 5912 5912 5912 5912 5912 5911 5910 5910 5910 5909 5909 5908 5907 5905 5904 5903 5901 5899 5898 5896 5894 5893 5891 5890 5888 5887 5885 5884 5882 5881 5880 5878 5877 5876 5874 5873 5872 5871 5870 5868 5867 5866 5865 5864 5863 5862 5861
5909 5911 5912 5912 5911 5911 5911 5911 5910 5909 5909 5908 5907 5907 5905 5904 5903 5901 5899 5898 5896 5894 5893 5891 5889 5888 5886 5884 5883 5881 5880 5878 5877 5876 5874 5873 5871 5870 5869 5868 5866 5865 5864 5863 5862 5861 5860 5859 5858
5909 5910 5911 5911 5910 5911 5910 5910 5909 5909 5908 5907 5907 5905 5904 5902 5901 5899 5897 5895 5894 5892 5891 5889 5887 5885 5884 5882 5880 5879 5877 5876 5874 5873 5871 5870 5868 5867 5865 5864 5863 5862 5861 5860 5858 5857 5856 5855 5855
5909 5910 5910 5910 5909 5909 5909 5909 5908 5907 5907 5906 5905 5904 5902 5900 5899 5897 5895 5893 5892 5890 5889 5887 5885 5883 5881 5880 5878 5877 5875 5873 5871 5869 5868 5866 5864 5863 5862 5860 5859 5858 5857 5856 5855 5854 5853 5852 5851
5909 5909 5909 5908 5908 5908 5908 5907 5906 5906 5905 5905 5903 5901 5899 5898 5896 5894 5893 5891 5890 5888 5886 5884 5882 5881 5879 5877 5876 5874 5872 5870 5868 5866 5864 5862 5861 5859 5857 5856 5855 5853 5852 5851 5850 5849 5848 5847 5847
5907 5909 5908 5907 5907 5907 5907 5906 5905 5905 5904 5903 5901 5899 5897 5896 5894 5892 5890 5889 5887 5886 5884 5881 5880 5878 5876 5874 5872 5870 5869 5866 5864 5862 5860 5858 5856 5855 5853 5851 5850 5848 5847 5846 5845 5844 5843 5842 5842
5906 5909 5907 5907 5907 5906 5905 5905 5904 5903 5902 5901 5899 5897 5895 5893 5891 5889 5887 5886 5884 5883 5881 5879 5877 5875 5873 5870 5868 5867 5865 5863 5861 5858 5856 5854 5852 5850 5848 5846 5845 5843 5842 5841 5840 5839 5838 5837 5837
5906 5907 5907 5906 5906 5905 5904 5904 5902 5901 5900 5898 5897 5895 5893 5891 5888 5886 5885 5883 5882 5880 5878 5876 5874 5871 5869 5866 5864 5862 5860 5858 5856 5854 5852 5850 5848 5846 5844 5842 5841 5839 5838 5836 5835 5834 5833 5832 5832
5905 5905 5905 5905 5905 5904 5903 5902 5900 5899 5898 5896 5894 5892 5890 5888 5885 5883 5882 5880 5878 5876 5874 5871 5870 5867 5865 5862 5860 5858 5856 5854 5851 5849 5847 5845 5843 5841 5839 5837 5835 5834 5833 5832 5830 5829 5828 5827 5827
5904 5904 5903 5903 5902 5902 5901 5900 5898 5896 5895 5892 5890 5888 5887 5885 5882 5880 5878 5876 5874 5872 5870 5868 5865 5863 5860 5858 5856 5853 5851 5849 5846 5844 5842 5840 5838 5836 5834 5832 5831 5829 5828 5827 5825 5824 5823 5822 5821
5902 5902 5902 5901 5900 5899 5898 5897 5895 5893 5891 5889 5887 5885 5884 5882 5879 5877 5874 5872 5870 5868 5866 5863 5861 5858 5856 5853 5851 5848 5846 5843 5841 5839 5836 5835 5833 5831 5829 5827 5826 5824 5822 5821 5820 5818 5817 5817 5816
5900 5900 5900 5899 5898 5896 5895 5894 5892 5890 5888 5886 5884 5883 5880 5879 5876 5874 5871 5868 5865 5863 5861 5858 5856 5853 5850 5848 5845 5843 5840 5838 5835 5833 5831 5828 5827 5825 5823 5822 5820 5818 5817 5815 5814 5813 5812 5811 5810
5898 5899 5898 5897 5895 5894 5893 5891 5889 5887 5885 5883 5881 5879 5877 5874 5872 5869 5866 5864 5861 5858 5855 5853 5850 5847 5845 5842 5839 5836 5833 5831 5829 5827 5824 5822 5820 5818 5817 5815 5813 5812 5810 5809 5808 5807 5805 5804 5803
5896 5896 5895 5894 5892 5891 5890 5888 5886 5883 5881 5878 5877 5875 5872 5870 5867 5864 5861 5859 5856 5853 5850 5847 5844 5842 5839 5836 5833 5830 5826 5824 5822 5820 5818 5816 5814 5812 5810 5809 5807 5805 5804 5802 5801 5800 5799 5798 5796
5894 5893 5892 5891 5889 5888 5886 5883 5881 5878 5876 5874 5872 5870 5868 5865 5863 5860 5857 5853 5851 5848 5844 5841 5838 5835 5832 5829 5826 5823 5820 5818 5815 5813 5812 5809 5807 5805 5803 5802 5800 5799 5798 5796 5795 5794 5792 5792 5790
5892 5891 5890 5888 5886 5884 5882 5879 5876 5873 5871 5869 5868 5866 5863 5861 5859 5855 5851 5848 5845 5841 5838 5835 5832 5828 5825 5822 5819 5815 5813 5811 5808 5806 5804 5802 5799 5798 5796 5795 5793 5792 5791 5789 5788 5787 5786 5785 5783
5889 5888 5887 5885 5883 5880 5878 5875 5873 5870 5867 5865 5863 5860 5858 5856 5853 5850 5846 5842 5838 5835 5831 5828 5824 5820 5817 5815 5811 5808 5806 5803 5801 5799 5797 5795 5792 5790 5788 5787 5786 5785 5783 5782 5781 5780 5779 5778 5776
5886 5885 5883 5882 5879 5877 5874 5871 5868 5865 5863 5860 5858 5855 5852 5850 5847 5844 5840 5836 5832 5828 5825 5821 5817 5814 5811 5807 5805 5802 5799 5797 5795 5793 5790 5788 5786 5784 5782 5780 5779 5777 5775 5775 5774 5773 5772 5771 5769
5883 5881 5878 5877 5875 5873 5869 5867 5864 5861 5858 5856 5853 5850 5847 5844 5840 5837 5834 5830 5826 5822 5818 5815 5811 5807 5804 5801 5799 5796 5793 5790 5788 5786 5783 5781 5778 5776 5774 5772 5771 5769 5769 5768 5767 5766 5765 5764 5762
5878 5876 5874 5871 5870 5867 5866 5862 5859 5857 5855 5852 5849 5846 5842 5838 5834 5830 5827 5823 5820 5816 5812 5809 5805 5801 5798 5795 5792 5789 5786 5784 5782 5779 5777 5774 5771 5769 5767 5765 5764 5763 5762 5761 5760 5759 5757 5756 5755
5874 5872 5869 5867 5865 5863 5860 5857 5855 5853 5850 5847 5844 5841 5837 5833 5828 5824 5820 5816 5813 5809 5806 5802 5798 5795 5791 5788 5784 5782 5779 5777 5775 5773 5770 5768 5766 5763 5761 5759 5758 5756 5755 5754 5752 5751 5750 5748 5747
5870 5868 5866 5863 5861 5859 5857 5854 5851 5848 5845 5842 5839 5835 5831 5827 5823 5819 5814 5810 5807 5803 5799 5795 5791 5787 5784 5780 5777 5774 5772 5770 5769 5766 5764 5762 5760 5757 5755 5753 5752 5750 5748 5747 5745 5744 5743 5741 5740
5866 5864 5861 5858 5856 5855 5852 5849 5846 5843 5840 5836 5833 5829 5825 5821 5817 5813 5809 5805 5801 5797 5793 5788 5785 5780 5777 5774 5770 5767 5765 5763 5761 5760 5758 5756 5753 5751 5749 5747 5746 5744 5742 5740 5739 5737 5736 5734 5733
5861 5859 5856 5853 5851 5849 5847 5844 5842 5838 5834 5831 5827 5823 5819 5815 5812 5807 5803 5799 5795 5791 5787 5782 5778 5774 5771 5767 5764 5761 5759 5756 5754 5753 5751 5749 5747 5745 5743 5741 5739 5737 5736 5734 5732 5730 5729 5728 5727
5857 5854 5852 5849 5846 5844 5841 5839 5837 5833 5829 5826 5822 5818 5814 5810 5806 5802 5798 5794 5790 5786 5781 5777 5773 5769 5764 5762 5759 5756 5753 5751 5749 5747 5745 5743 5741 5739 5737 5735 5732 5730 5729 5728 5727 5725 5723 5722 5720
5852 5849 5847 5845 5841 5838 5835 5833 5831 5827 5824 5821 5817 5812 5808 5804 5800 5796 5792 5788 5784 5780 5776 5772 5767 5764 5760 5757 5754 5751 5748 5746 5744 5741 5739 5737 5735 5733 5731 5729 5727 5725 5723 5722 5721 5720 5718 5717 5715
5848 5846 5842 5840 5836 5833 5829 5829 5826 5822 5819 5815 5811 5807 5802 5798 5794 5790 5785 5782 5778 5774 5770 5766 5762 5758 5755 5751 5748 5745 5742 5740 5739 5737 5734 5732 5730 5727 5725 5724 5721 5720 5718 5717 5715 5714 5712 5710 5709
5843 5840 5838 5836 5832 5828 5824 5825 5819 5816 5812 5809 5805 5801 5797 5792 5788 5783 5780 5776 5772 5768 5764 5760 5756 5753 5750 5746 5743 5740 5738 5736 5733 5731 5728 5726 5724 5722 5720 5718 5716 5714 5713 5711 5710 5708 5706 5705 5703
Wind_Speed
11 10 9 7 6 5 4 4 4 4 4 5 7 8 9 10 11 11 11 11 11 12 12 12 12 12 12 11 12 12 12 13 14 14 15 15 15 15 15 15 15 16 16 15 14 14 14 14 14
12 10 8 7 5 4 3 2 3 5 6 8 9 9 10 11 11 12 12 12 12 12 13 13 12 13 13 13 13 13 13 13 14 15 15 15 15 16 16 16 16 16 16 16 16 16 15 15 15
12 10 8 6 4 3 2 2 4 7 8 10 11 11 12 12 13 14 13 13 13 13 13 13 13 13 13 13 13 14 14 14 14 15 15 16 16 17 17 17 17 17 17 17 17 17 16 16 16
12 10 8 6 4 2 2 4 6 8 9 12 12 13 13 13 14 15 13 13 14 14 14 14 14 14 13 14 14 14 14 15 15 15 16 16 17 17 17 18 18 18 18 18 18 17 17 17 17
12 11 9 6 3 1 3 5 6 9 10 11 13 14 14 14 15 16 15 15 15 15 15 15 15 15 14 15 15 15 15 15 16 17 17 17 17 17 18 18 18 19 19 19 18 18 18 18 18
12 11 9 5 3 4 4 5 7 9 12 13 14 16 16 15 15 16 15 15 15 15 15 15 16 16 16 16 16 16 17 17 17 18 18 18 18 18 19 19 19 20 20 20 19 19 19 19 19
11 10 9 6 4 4 6 6 7 10 13 15 17 18 17 16 16 16 16 15 15 15 16 16 17 17 17 17 17 18 18 18 18 19 19 20 19 19 19 20 20 21 22 21 20 20 20 20 20
10 9 7 7 6 6 7 9 10 10 13 15 17 19 20 18 17 17 17 17 17 17 17 17 18 18 18 18 18 19 19 19 19 20 20 20 20 20 20 21 21 21 22 22 22 22 21 21 20
10 8 7 7 7 7 9 11 12 13 14 15 17 19 20 20 19 18 18 18 18 18 17 17 18 19 18 18 19 19 19 20 20 20 20 20 20 20 21 21 21 21 21 21 22 22 22 21 21
8 7 6 7 8 8 10 12 13 14 14 16 18 19 19 19 19 19 19 19 19 19 19 19 19 20 20 19 20 20 19 20 21 21 21 21 21 20 20 20 20 20 20 20 21 21 22 21 21
6 5 6 7 7 9 11 13 14 15 16 17 18 18 18 18 19 19 19 20 20 20 20 20 20 20 21 22 22 22 22 21 21 21 22 21 21 21 20 21 20 20 20 20 21 21 21 22 22
5 4 4 5 6 9 11 13 14 16 17 17 17 18 18 19 19 21 22 22 22 22 22 22 21 22 22 22 23 23 24 23 22 22 22 22 22 22 22 22 22 22 22 21 21 22 22 23 23
5 4 4 6 8 10 12 14 16 17 17 17 18 19 21 21 21 22 23 23 23 23 23 23 24 24 24 24 24 24 25 24 23 22 22 22 22 22 22 22 22 22 22 22 22 22 22 21 21
4 5 5 7 10 11 13 14 15 17 18 18 19 19 20 22 22 23 24 24 24 24 24 25 25 25 25 25 25 25 25 25 24 24 23 23 23 23 23 23 24 23 23 23 23 23 23 22 22
5 6 7 9 11 13 15 15 17 19 19 19 20 21 21 22 23 24 25 25 25 25 26 26 26 26 26 26 26 26 25 25 24 24 25 25 24 23 23 24 23 23 24 24 23 23 23 23 23
5 6 8 10 13 16 17 18 19 20 21 21 21 21 22 23 23 24 25 25 26 26 27 27 27 27 27 27 27 27 25 25 25 25 25 25 25 24 24 24 24 24 24 24 24 24 24 24 24
7 8 10 12 15 18 19 20 21 21 21 21 21 23 25 25 25 26 26 26 26 27 28 28 27 27 27 28 28 28 26 27 27 26 26 26 26 25 24 24 24 24 24 23 24 24 24 24 24
9 11 13 15 16 18 19 20 22 22 22 22 23 24 26 26 27 27 28 27 27 28 29 30 30 29 28 27 28 28 27 27 27 27 27 26 25 25 25 24 24 24 24 24 23 23 24 24 25
12 13 14 16 17 19 19 21 22 23 24 24 24 26 27 28 29 28 28 28 28 29 30 31 31 30 29 29 28 28 27 26 26 26 27 26 26 25 25 25 25 25 25 25 25 25 24 24 25
14 15 16 17 18 19 20 21 21 23 24 25 26 27 28 28 29 30 29 29 29 30 31 31 31 30 29 29 29 28 27 27 27 27 26 26 25 25 26 25 25 26 25 25 25 25 25 25 24
16 18 18 18 18 19 21 21 21 23 24 25 26 27 28 29 30 30 30 30 30 30 30 31 31 30 30 29 29 29 28 28 27 26 26 26 26 25 25 25 25 25 25 24 25 25 25 25 24
17 18 19 20 19 18 18 20 22 23 24 25 25 26 27 29 30 30 30 29 29 30 30 30 30 30 30 29 28 28 28 27 27 26 25 25 24 25 25 25 24 25 25 25 25 25 24 24 23
18 18 19 19 17 16 17 20 22 23 24 25 25 25 26 27 29 29 30 29 29 30 31 31 30 29 29 29 28 27 26 26 26 25 25 24 24 23 24 24 23 24 24 24 24 24 23 23 23
19 18 18 17 16 15 16 19 20 21 22 23 24 25 27 28 28 29 30 30 30 30 31 31 31 31 30 29 27 26 26 25 25 24 23 23 23 23 23 23 23 22 22 23 23 23 22 23 23
19 20 18 17 16 16 17 19 21 22 24 25 26 27 28 28 29 30 31 30 30 30 30 31 30 30 28 27 26 25 25 25 24 23 22 22 23 23 23 22 22 22 22 22 22 22 22 22 22
20 20 20 20 20 19 19 20 22 22 23 25 26 28 29 29 29 29 30 30 29 29 29 29 29 28 27 25 25 24 25 24 23 23 22 23 23 23 21 21 22 22 21 21 21 21 21 21 21
20 19 19 21 22 22 23 22 22 22 23 24 26 28 28 29 29 29 30 30 30 29 29 28 28 28 26 24 24 23 22 22 22 22 22 22 22 21 20 20 20 20 20 20 19 19 19 20 20
19 19 19 21 22 23 24 24 23 23 24 26 27 27 28 29 29 29 29 29 29 29 29 28 27 25 26 25 24 22 22 22 22 21 20 20 20 20 20 20 19 18 19 19 19 19 20 20 20
18 19 21 22 23 24 25 25 25 24 25 26 26 27 28 28 28 28 29 29 28 28 28 27 26 25 25 24 23 21 20 20 19 20 19 19 19 19 19 19 18 18 18 19 19 19 20 20 20
20 20 21 22 23 24 26 27 25 24 25 26 27 28 28 29 29 29 29 29 28 27 27 26 25 24 24 23 23 21 20 19 19 19 19 19 18 18 18 18 18 17 17 18 18 18 18 19 19
Wind_Direction
147 144 141 135 119 107 80 66 33 2 342 340 333 338 346 346 347 346 343 342 343 343 339 336 331 327 325 321 318 317 315 313 311 308 304 301 299 299 298 296 296 294 293 291 289 286 283 280 278
155 151 152 145 131 98 38 45 9 342 336 333 320 328 334 338 337 337 337 336 340 339 335 332 330 326 324 321 318 316 316 312 309 307 304 300 298 297 295 293 293 292 290 288 287 286 283 281 278
161 159 158 151 142 106 23 359 340 333 335 329 326 324 328 333 333 329 330 332 333 335 331 329 327 325 324 323 320 315 314 312 308 305 302 299 296 295 293 291 290 289 287 286 284 283 282 281 278
169 166 164 159 154 161 324 330 322 329 327 323 322 320 321 325 327 328 332 333 328 328 328 325 322 322 322 320 318 315 315 312 309 306 302 298 296 292 289 288 287 286 285 283 281 279 279 278 278
171 170 167 165 180 217 321 315 306 321 316 315 316 314 313 320 325 326 328 328 323 321 323 322 321 321 320 317 315 315 315 311 308 306 303 300 296 292 288 287 286 286 284 281 279 277 276 276 276
174 174 175 180 217 255 289 299 300 305 312 311 311 310 312 318 320 320 323 326 322 321 320 319 319 317 316 315 313 314 315 313 310 308 303 302 297 294 291 286 285 284 281 280 279 278 276 275 274
180 181 187 198 228 251 277 297 302 306 315 315 314 313 314 319 320 317 317 321 320 319 316 316 315 314 314 314 312 311 312 312 310 308 305 303 300 296 294 290 288 286 283 278 278 278 276 274 272
185 188 201 223 238 269 291 303 308 311 313 314 315 316 315 318 318 316 315 317 317 316 315 314 312 311 311 309 308 311 311 310 310 308 307 304 301 297 294 293 290 288 285 281 278 278 275 272 270
194 197 214 236 254 275 291 298 303 306 308 311 314 316 316 316 315 313 314 313 313 313 312 310 310 309 307 305 305 306 307 308 308 307 305 303 300 295 292 294 290 288 286 281 279 278 276 271 268
201 207 227 250 263 277 293 296 301 302 302 304 307 308 310 314 315 313 311 311 310 311 309 308 307 305 304 303 302 301 303 304 305 305 303 301 299 295 292 292 291 290 287 283 280 277 273 270 269
216 224 249 262 278 294 301 302 301 299 299 302 305 307 307 312 314 312 310 310 310 310 309 308 307 304 303 303 303 305 304 303 302 301 301 300 297 296 292 290 292 290 289 285 282 279 275 273 269
223 229 259 279 292 304 307 303 300 299 302 306 311 315 313 313 311 311 312 311 310 309 309 308 306 304 303 303 304 304 305 303 301 298 299 299 297 296 294 290 290 290 289 286 284 278 276 273 270
220 231 246 273 289 297 303 308 309 306 304 307 311 313 311 310 309 308 309 308 307 307 307 306 307 307 304 303 303 302 302 302 299 296 296 297 296 294 292 290 289 287 287 284 283 278 273 273 272
225 243 254 274 291 303 306 308 306 306 304 308 310 310 311 310 310 310 309 307 304 304 305 306 306 305 303 301 300 299 298 298 296 294 293 292 292 292 291 290 289 288 285 284 283 281 277 276 274
248 261 270 283 298 306 308 305 302 305 306 308 309 312 311 309 308 308 308 307 305 302 304 306 305 304 302 302 302 300 296 294 294 293 293 291 291 290 289 290 290 288 287 286 284 280 280 278 276
254 272 283 295 303 306 307 305 305 306 305 304 302 306 310 312 310 308 309 308 308 306 306 306 304 303 303 302 303 299 296 295 293 293 292 290 290 291 291 289 288 288 287 286 283 281 279 278 277
274 291 296 297 302 305 305 304 303 304 306 304 305 306 309 311 312 311 309 308 309 308 306 305 302 302 301 301 302 300 296 296 295 291 290 289 289 290 292 290 289 288 286 285 283 281 279 278 278
295 293 292 296 301 302 302 300 300 304 305 305 306 306 306 308 309 309 307 307 307 306 305 305 304 301 301 301 301 300 297 299 296 292 291 290 289 289 290 288 289 289 287 285 283 280 281 280 278
296 294 289 292 295 295 295 296 298 300 302 302 303 304 305 306 307 308 308 307 306 304 305 304 306 304 302 300 300 299 299 300 299 294 295 290 291 291 289 287 287 286 286 286 283 281 280 280 278
291 291 292 293 292 290 290 292 294 296 298 300 304 305 304 306 309 309 309 308 305 303 304 304 304 303 302 300 299 300 299 299 299 297 295 292 291 289 291 289 288 286 285 283 282 281 279 278 277
295 294 296 295 294 290 292 291 292 295 299 303 305 306 306 308 310 310 307 305 305 303 302 302 302 300 300 300 299 299 299 298 298 297 297 293 292 291 291 290 287 286 285 283 282 280 280 278 276
297 298 299 297 292 289 292 293 294 298 300 301 301 304 306 309 309 310 309 308 308 306 306 303 302 301 300 301 300 299 298 299 299 297 297 297 295 293 293 289 286 286 285 283 282 281 280 278 276
303 305 303 303 297 292 292 292 296 299 300 302 301 304 306 306 308 308 308 309 309 309 308 305 302 301 300 300 299 298 297 298 298 297 296 297 296 296 296 292 288 288 287 284 284 282 280 278 277
304 305 303 299 296 291 293 294 298 303 306 307 306 306 306 307 307 310 312 311 311 310 308 306 305 306 302 299 298 299 298 297 298 298 298 298 299 296 294 291 289 288 289 287 285 283 281 279 278
305 306 304 299 298 297 298 300 303 303 307 307 307 307 307 308 310 313 313 313 312 311 311 310 309 307 304 300 297 299 299 299 296 297 299 298 298 296 293 291 289 288 288 285 285 283 283 282 281
308 308 308 307 306 304 302 304 307 308 309 309 308 309 311 312 313 312 312 312 312 312 313 312 310 308 305 303 302 301 300 301 299 297 298 298 298 298 295 291 291 290 288 284 282 282 283 283 282
303 302 304 306 307 307 305 304 306 307 308 308 309 310 310 313 313 312 311 310 311 311 311 311 311 311 309 305 307 306 303 302 300 300 299 298 297 297 295 294 293 291 289 287 284 285 285 285 285
303 304 304 306 309 309 307 305 309 309 308 307 309 310 310 311 313 312 312 312 311 310 310 310 311 310 309 308 308 308 304 300 301 301 301 301 299 297 295 295 294 291 289 289 287 285 285 286 287
302 301 304 307 309 311 312 312 312 309 308 308 308 310 311 311 313 312 312 312 311 311 310 310 310 307 308 309 309 308 306 305 305 304 304 304 302 299 297 297 295 292 291 290 288 287 287 287 290
307 305 306 307 309 309 310 312 313 310 309 307 308 310 312 313 312 313 312 310 309 309 310 310 309 306 308 308 309 309 306 306 307 306 307 305 304 303 300 298 296 294 294 293 292 292 291 291 290